This is the latest recevied weather packets stored in our database for station/object WP3OF-2. If no packets are shown the sender has not sent any weather packets the latest 10 day(s).
| Time | Temp. | Humidity | Pressure | Rain* | Wind** | Luminosity | Snow |
|---|---|---|---|---|---|---|---|
| 1788188804 | 23.89° C | 93% | 1026.7 hPa | 0 mm | - | 953 W/m² | - |
| 1788188500 | 23.33° C | 93% | 1026.7 hPa | 0 mm | - | 806 W/m² | - |
| 1788188199 | 23.89° C | 93% | 1026.7 hPa | 0 mm | - | 442 W/m² | - |
| 1788187896 | 23.33° C | 94% | 1026.3 hPa | 0 mm | - | 780 W/m² | - |
| 1788187591 | 23.33° C | 95% | 1026.3 hPa | 0 mm | - | 862 W/m² | - |
| 1788187287 | 23.33° C | 94% | 1026 hPa | 0 mm | - | 933 W/m² | - |
| 1788186986 | 22.78° C | 94% | 1026.3 hPa | 0 mm | - | 839 W/m² | - |
| 1788186681 | 22.78° C | 93% | 1026 hPa | 0 mm | - | 927 W/m² | - |
| 1788186378 | 22.78° C | 95% | 1026 hPa | 0 mm | - | 917 W/m² | - |
| 1788186073 | 22.78° C | 95% | 1026 hPa | 0 mm | - | 917 W/m² | - |
| 1788185772 | 23.33° C | 94% | 1026 hPa | 0 mm | - | 920 W/m² | - |
| 1788185467 | 23.33° C | 96% | 1026 hPa | 0 mm | - | 844 W/m² | - |
| 1788185167 | 22.78° C | 95% | 1025.6 hPa | 0 mm | - | 875 W/m² | - |
| 1788184862 | 22.78° C | 97% | 1026 hPa | 0 mm | - | 952 W/m² | - |
| 1788184559 | 22.78° C | 97% | 1026 hPa | 0 mm | - | 868 W/m² | - |
| 1788184255 | 22.78° C | 96% | 1026 hPa | 0 mm | - | 844 W/m² | - |
| 1788183950 | 22.22° C | 98% | 1025.6 hPa | 0 mm | - | 845 W/m² | - |
| 1788183645 | 21.11° C | 99% | 1025.6 hPa | 0 mm | - | 760 W/m² | - |
| 1788183345 | 21.11° C | 99% | 1025.6 hPa | 0 mm | - | 760 W/m² | - |
| 1788183040 | 21.11° C | 99% | 1025.6 hPa | 0 mm | - | 812 W/m² | - |
| 1788182736 | 21.11° C | 99% | 1025.6 hPa | 0 mm | - | 642 W/m² | - |
| 1788182435 | 21.11° C | 99% | 1025.6 hPa | 0 mm | - | 642 W/m² | - |
| 1788182129 | 21.11° C | 99% | 1025.6 hPa | 0 mm | - | 642 W/m² | - |
| 1788181826 | 21.11° C | 99% | 1025.2 hPa | 0 mm | - | 537 W/m² | - |
| 1788181526 | 21.11° C | 99% | 1024.9 hPa | 0 mm | - | 568 W/m² | - |
* Rain latest hour (hover to see other rain measurements)
** Current wind speed in m/s (hover to see current wind gust speed)